Starlink 34057

operational
NORAD ID: 63814 Int'l Des: 2025-092 Owner: SPXS Country: US Constellation: starlink
LEOCIRCULAR

Starlink 34057について

説明を読み込み中...

リアルタイム位置

3D地球を読み込み中...

次回通過

高度履歴

Altitude vs Time

uPlot chart will show altitude changes over time

軌道要素

1 63814U 25092L 25303.73825622 .00028723 00000-0 10484-2 0 9999
2 63814 43.0051 186.1521 0001964 263.8588 96.2040 15.27604795 28749
Epoch: Oct 30, 2025 • Age: 15 hours

現在のステータス

高度 494.1 km
速度 7.62 km/s
衛星直下点 -41.19°S, 102.67°W
打ち上げ日 May 4, 2025
運用期間 0.4 years
タイプ internet

技術仕様

分類 Payload
質量 575.00 kg
乾燥質量 530.00 kg
総質量 575.00 kg
長さ 0.30 m
直径 4.10 m
スパン 29.00 m
形状 Box + pan
製造者 SPXS
バスタイプ Starlink V2MO
フェーズステータス In Orbit
所有者/国 SPXS/US

大規模コンステレーション

Loading constellations...